contact:dominique.lefevre@mio.osupytheas.fr, maurice.libes@osupytheas.fr, didier.mallarino@osupytheas.fr
Project:EMSO http://www.emso-fr.org/EMSO-France
Depth: 2436.0 m
Title:EMSO Ligure Ouest : Data MII capteur AQUADOPP
Date,Latitude,Longitude,X_East,Y_North,Z_Up,Amplitude_X,Amplitude_Y,Amplitude_Z,Batterie,SoundSpeed,Heading,Pitch,Roll,Pressure,TIS,Speed,Direction
, degrees North, degrees East, m.s-1, m.s-1,m.s-1, 1, 1, 1, Volt, m.s-1, degree, degree, degree, dbar, degree_C, m.s-1, degree
2023-07-17T00:04:03,42.805,6.029,-0.01,0.046,0.0,102.0,102.0,101.0,13.4,1505.2,352.8,-0.8,1.8,2471.412,13.29,0.047,347.7
2023-07-17T00:07:03,42.805,6.029,-0.018,0.032,-0.022,101.0,104.0,101.0,13.4,1505.2,338.0,-0.8,1.8,2471.433,13.29,0.036,330.6
2023-07-17T00:10:03,42.805,6.029,-0.022,0.01,-0.042,102.0,103.0,101.0,13.3,1505.2,325.0,-0.8,1.8,2471.414,13.29,0.024,294.4
2023-07-17T00:13:03,42.805,6.029,-0.025,-0.004,-0.036,102.0,104.0,101.0,13.3,1505.2,328.3,-0.8,1.8,2471.465,13.29,0.025,260.9
2023-07-17T00:16:03,42.805,6.029,-0.031,0.02,-0.001,103.0,104.0,100.0,13.4,1505.2,322.9,-0.7,1.8,2471.424,13.29,0.036,302.8
2023-07-17T00:19:03,42.805,6.029,-0.011,0.003,-0.029,103.0,102.0,101.0,13.3,1505.2,331.3,-0.7,1.8,2471.382,13.29,0.011,285.3
2023-07-17T00:22:03,42.805,6.029,-0.045,0.034,-0.02,102.0,103.0,104.0,13.4,1505.2,327.5,-0.8,1.8,2471.399,13.29,0.056,307.1
2023-07-17T00:25:03,42.805,6.029,-0.007,0.027,-0.031,103.0,103.0,102.0,13.4,1505.2,343.0,-0.8,1.8,2471.398,13.29,0.027,345.5
2023-07-17T00:28:03,42.805,6.029,-0.011,0.006,-0.008,106.0,102.0,101.0,13.4,1505.2,324.2,-0.7,1.8,2471.396,13.29,0.012,298.6
2023-07-17T00:31:03,42.805,6.029,-0.031,0.0,-0.012,102.0,103.0,102.0,13.4,1505.2,321.7,-0.8,1.9,2471.413,13.29,0.03,270.0
2023-07-17T00:34:03,42.805,6.029,-0.016,0.016,-0.043,103.0,102.0,102.0,13.4,1505.2,340.8,-0.8,1.8,2471.384,13.29,0.022,315.0
2023-07-17T00:37:03,42.805,6.029,-0.016,0.005,-0.049,104.0,101.0,103.0,13.3,1505.2,342.5,-0.8,1.8,2471.371,13.29,0.016,287.4
2023-07-17T00:40:03,42.805,6.029,0.006,0.02,-0.035,103.0,103.0,101.0,13.4,1505.2,344.2,-0.8,1.8,2471.407,13.29,0.02,16.7
2023-07-17T00:43:03,42.805,6.029,-0.029,0.039,-0.049,103.0,103.0,102.0,13.4,1505.2,347.4,-0.8,1.8,2471.379,13.29,0.048,323.4
2023-07-17T00:46:03,42.805,6.029,-0.012,0.005,-0.031,102.0,103.0,101.0,13.4,1505.2,331.0,-0.7,1.8,2471.414,13.29,0.013,292.6
2023-07-17T00:49:03,42.805,6.029,-0.01,0.023,0.018,103.0,103.0,102.0,13.4,1505.2,322.3,-0.8,1.8,2471.354,13.29,0.025,336.5
2023-07-17T00:52:03,42.805,6.029,-0.006,0.023,-0.03,102.0,103.0,101.0,13.4,1505.2,352.8,-0.8,1.8,2471.395,13.29,0.023,345.4
2023-07-17T00:55:03,42.805,6.029,-0.018,0.038,-0.021,103.0,103.0,102.0,13.4,1505.2,353.1,-0.7,1.8,2471.376,13.29,0.042,334.7
2023-07-17T00:58:03,42.805,6.029,-0.016,0.009,-0.035,104.0,101.0,101.0,13.3,1505.2,333.9,-0.7,1.8,2471.389,13.29,0.018,299.4
2023-07-17T01:04:03,42.805,6.029,-0.005,0.054,0.018,104.0,103.0,103.0,13.4,1505.2,350.9,-0.8,1.8,2471.445,13.29,0.054,354.7
2023-07-17T01:07:03,42.805,6.029,-0.025,0.02,-0.013,104.0,102.0,101.0,13.3,1505.2,322.9,-0.7,1.8,2471.437,13.29,0.032,308.7
2023-07-17T01:10:03,42.805,6.029,-0.03,0.035,-0.025,104.0,102.0,100.0,13.4,1505.2,328.6,-0.8,1.8,2471.425,13.29,0.046,319.4
2023-07-17T01:13:03,42.805,6.029,-0.024,0.02,-0.024,101.0,103.0,101.0,13.4,1505.2,333.8,-0.7,1.8,2471.385,13.29,0.031,309.8
2023-07-17T01:16:03,42.805,6.029,-0.011,0.006,-0.017,102.0,102.0,103.0,13.3,1505.2,326.5,-0.7,1.8,2471.409,13.29,0.012,298.6
2023-07-17T01:19:03,42.805,6.029,-0.009,0.051,0.007,102.0,103.0,101.0,13.4,1505.2,351.8,-0.7,1.8,2471.403,13.29,0.051,350.0
2023-07-17T01:22:03,42.805,6.029,-0.021,0.021,-0.02,103.0,102.0,101.0,13.4,1505.2,321.6,-0.8,1.8,2471.348,13.29,0.029,315.0
2023-07-17T01:25:03,42.805,6.029,-0.013,0.025,-0.038,103.0,102.0,102.0,13.4,1505.2,339.5,-0.8,1.8,2471.392,13.29,0.028,332.5
2023-07-17T01:28:03,42.805,6.029,-0.028,0.033,-0.011,102.0,102.0,101.0,13.3,1505.2,331.5,-0.8,1.8,2471.394,13.29,0.043,319.7
2023-07-17T01:31:03,42.805,6.029,-0.017,0.026,-0.036,101.0,102.0,102.0,13.4,1505.2,352.8,-0.8,1.8,2471.384,13.29,0.031,326.8
2023-07-17T01:34:03,42.805,6.029,-0.025,0.012,-0.028,102.0,105.0,101.0,13.3,1505.2,345.6,-0.8,1.8,2471.37,13.29,0.027,295.6
2023-07-17T01:37:03,42.805,6.029,-0.029,0.025,-0.025,102.0,103.0,102.0,13.4,1505.2,328.3,-0.8,1.8,2471.378,13.29,0.038,310.8
2023-07-17T01:40:03,42.805,6.029,-0.021,0.017,-0.029,102.0,102.0,101.0,13.4,1505.2,322.3,-0.8,1.8,2471.372,13.29,0.027,309.0
2023-07-17T01:43:03,42.805,6.029,-0.008,0.021,-0.032,103.0,104.0,102.0,13.3,1505.2,340.0,-0.8,1.8,2471.364,13.29,0.022,339.1
2023-07-17T01:46:03,42.805,6.029,-0.037,0.035,-0.021,102.0,103.0,101.0,13.4,1505.2,342.2,-0.8,1.8,2471.36,13.29,0.05,313.4
2023-07-17T01:49:03,42.805,6.029,-0.021,0.039,-0.031,103.0,102.0,101.0,13.4,1505.2,338.4,-0.8,1.8,2471.387,13.29,0.044,331.7
2023-07-17T01:52:03,42.805,6.029,-0.018,0.014,-0.053,103.0,101.0,101.0,13.4,1505.2,329.7,-0.8,1.8,2471.389,13.29,0.022,307.9
2023-07-17T01:55:03,42.805,6.029,-0.003,0.011,-0.013,102.0,104.0,101.0,13.4,1505.2,335.5,-0.8,1.8,2471.365,13.29,0.011,344.7
2023-07-17T01:58:03,42.805,6.029,-0.021,0.013,-0.008,101.0,102.0,102.0,13.4,1505.2,340.3,-0.8,1.8,2471.349,13.29,0.024,301.8
2023-07-17T02:04:03,42.805,6.029,-0.013,0.016,-0.039,103.0,106.0,101.0,13.3,1505.2,353.5,-0.8,1.8,2471.377,13.29,0.02,320.9
2023-07-17T02:07:03,42.805,6.029,-0.026,0.022,-0.024,104.0,100.0,101.0,13.4,1505.2,334.6,-0.8,1.8,2471.386,13.29,0.034,310.2
2023-07-17T02:10:03,42.805,6.029,-0.038,0.012,-0.054,102.0,101.0,101.0,13.4,1505.2,325.0,-0.8,1.8,2471.383,13.29,0.039,287.5
2023-07-17T02:13:03,42.805,6.029,-0.023,0.03,0.0,102.0,102.0,102.0,13.4,1505.2,336.8,-0.7,1.8,2471.398,13.29,0.037,322.5
2023-07-17T02:16:03,42.805,6.029,0.0,0.013,-0.004,102.0,102.0,101.0,13.4,1505.2,334.8,-0.7,1.8,2471.377,13.29,0.013,0.0
2023-07-17T02:19:03,42.805,6.029,-0.04,0.006,-0.06,102.0,102.0,101.0,13.3,1505.2,332.9,-0.7,1.8,2471.383,13.29,0.04,278.5
2023-07-17T02:22:03,42.805,6.029,-0.026,0.024,-0.015,102.0,104.0,102.0,13.4,1505.2,337.2,-0.8,1.8,2471.361,13.29,0.035,312.7
2023-07-17T02:25:03,42.805,6.029,-0.029,0.034,-0.042,102.0,103.0,101.0,13.4,1505.2,339.3,-0.8,1.8,2471.382,13.29,0.044,319.5
2023-07-17T02:28:03,42.805,6.029,0.004,0.038,-0.015,103.0,102.0,100.0,13.3,1505.2,349.1,-0.7,1.8,2471.369,13.29,0.038,6.0
2023-07-17T02:31:03,42.805,6.029,-0.036,0.03,-0.037,102.0,103.0,100.0,13.4,1505.2,330.4,-0.8,1.8,2471.377,13.29,0.046,309.8
2023-07-17T02:34:03,42.805,6.029,-0.033,0.033,0.006,102.0,103.0,101.0,13.4,1505.2,321.0,-0.8,1.8,2471.403,13.29,0.046,315.0
2023-07-17T02:37:03,42.805,6.029,0.0,0.039,-0.008,100.0,103.0,102.0,13.4,1505.2,343.3,-0.7,1.8,2471.354,13.29,0.039,0.0
2023-07-17T02:40:03,42.805,6.029,-0.007,0.054,0.023,102.0,102.0,101.0,13.4,1505.2,349.5,-0.8,1.8,2471.375,13.29,0.054,352.6
2023-07-17T02:43:03,42.805,6.029,-0.026,0.013,0.013,102.0,102.0,101.0,13.3,1505.2,322.3,-0.8,1.8,2471.363,13.29,0.029,296.6
2023-07-17T02:46:03,42.805,6.029,-0.021,0.019,-0.007,102.0,101.0,101.0,13.4,1505.2,338.3,-0.8,1.8,2471.367,13.29,0.028,312.1
2023-07-17T02:49:03,42.805,6.029,-0.008,0.03,-0.035,102.0,102.0,101.0,13.4,1505.2,332.9,-0.7,1.8,2471.347,13.29,0.031,345.1
2023-07-17T02:52:03,42.805,6.029,-0.01,0.036,-0.006,103.0,102.0,101.0,13.4,1505.2,347.1,-0.8,1.8,2471.358,13.29,0.037,344.5
2023-07-17T02:55:03,42.805,6.029,-0.022,0.016,-0.013,102.0,103.0,101.0,13.4,1505.2,324.1,-0.7,1.8,2471.344,13.29,0.027,306.0
2023-07-17T02:58:03,42.805,6.029,-0.017,0.039,0.009,103.0,101.0,101.0,13.3,1505.2,346.2,-0.7,1.8,2471.371,13.29,0.042,336.5
2023-07-17T03:04:03,42.805,6.029,-0.019,0.039,-0.006,104.0,101.0,101.0,13.4,1505.2,340.4,-0.8,1.8,2471.401,13.29,0.043,334.0
2023-07-17T03:07:03,42.805,6.029,-0.021,0.024,-0.014,101.0,104.0,101.0,13.4,1505.2,323.8,-0.8,1.9,2471.421,13.29,0.031,318.8
2023-07-17T03:10:03,42.805,6.029,-0.028,0.028,-0.035,102.0,103.0,101.0,13.3,1505.2,338.4,-0.8,1.8,2471.43,13.29,0.039,315.0
2023-07-17T03:13:03,42.805,6.029,-0.017,0.046,-0.005,102.0,103.0,100.0,13.4,1505.2,328.6,-0.8,1.8,2471.437,13.29,0.049,339.7
2023-07-17T03:16:03,42.805,6.029,-0.005,0.044,-0.018,103.0,102.0,102.0,13.4,1505.2,352.8,-0.8,1.8,2471.402,13.29,0.044,353.5
2023-07-17T03:19:03,42.805,6.029,-0.004,0.025,-0.008,103.0,102.0,101.0,13.4,1505.2,349.5,-0.8,1.8,2471.364,13.29,0.025,350.9
2023-07-17T03:22:03,42.805,6.029,-0.021,0.04,-0.006,103.0,102.0,100.0,13.4,1505.2,343.5,-0.7,1.8,2471.401,13.29,0.045,332.3
2023-07-17T03:25:03,42.805,6.029,-0.031,0.024,-0.038,102.0,102.0,101.0,13.4,1505.2,326.3,-0.8,1.8,2471.322,13.29,0.039,307.7
2023-07-17T03:28:03,42.805,6.029,-0.041,0.05,-0.012,103.0,102.0,101.0,13.3,1505.2,332.0,-0.8,1.8,2471.397,13.29,0.064,320.7
2023-07-17T03:31:03,42.805,6.029,-0.025,0.025,-0.007,102.0,103.0,100.0,13.4,1505.2,326.0,-0.8,1.8,2471.386,13.29,0.035,315.0
2023-07-17T03:34:03,42.805,6.029,-0.024,0.034,-0.006,101.0,103.0,102.0,13.4,1505.2,329.2,-0.8,1.8,2471.415,13.29,0.041,324.8
2023-07-17T03:37:03,42.805,6.029,-0.02,0.011,-0.044,101.0,102.0,102.0,13.4,1505.2,336.8,-0.8,1.8,2471.372,13.29,0.022,298.8
2023-07-17T03:40:03,42.805,6.029,-0.02,0.032,-0.006,103.0,103.0,100.0,13.3,1505.2,346.9,-0.8,1.8,2471.375,13.29,0.037,328.0
2023-07-17T03:43:03,42.805,6.029,-0.015,0.021,-0.018,103.0,102.0,101.0,13.4,1505.2,326.0,-0.7,1.8,2471.421,13.29,0.025,324.5
2023-07-17T03:46:03,42.805,6.029,-0.024,0.029,-0.021,102.0,102.0,102.0,13.4,1505.2,341.5,-0.8,1.8,2471.379,13.29,0.037,320.4
2023-07-17T03:49:03,42.805,6.029,-0.025,0.023,-0.03,103.0,102.0,102.0,13.4,1505.2,335.2,-0.8,1.8,2471.412,13.29,0.033,312.6
2023-07-17T03:52:03,42.805,6.029,-0.024,0.033,-0.01,101.0,103.0,101.0,13.3,1505.2,326.8,-0.7,1.8,2471.373,13.29,0.04,324.0
2023-07-17T03:55:03,42.805,6.029,-0.013,0.037,-0.015,106.0,102.0,102.0,13.4,1505.2,350.5,-0.7,1.9,2471.351,13.29,0.039,340.6
2023-07-17T03:58:03,42.805,6.029,-0.015,-0.007,-0.066,102.0,103.0,101.0,13.3,1505.2,325.3,-0.8,1.8,2471.392,13.29,0.016,245.0
2023-07-17T04:04:03,42.805,6.029,-0.006,0.03,-0.014,103.0,102.0,101.0,13.3,1505.2,332.5,-0.7,1.8,2471.423,13.29,0.03,348.7
2023-07-17T04:07:03,42.805,6.029,-0.028,0.042,-0.029,102.0,104.0,101.0,13.4,1505.2,344.7,-0.8,1.8,2471.44,13.29,0.05,326.3
2023-07-17T04:10:03,42.805,6.029,-0.015,0.042,-0.035,104.0,102.0,100.0,13.4,1505.2,352.8,-0.8,1.8,2471.45,13.29,0.044,340.4
2023-07-17T04:13:03,42.805,6.029,-0.031,0.027,-0.034,103.0,103.0,101.0,13.4,1505.2,333.4,-0.8,1.8,2471.404,13.29,0.041,311.1
2023-07-17T04:16:03,42.805,6.029,-0.023,0.016,-0.015,103.0,104.0,101.0,13.4,1505.2,340.4,-0.7,1.8,2471.435,13.29,0.028,304.8
2023-07-17T04:19:03,42.805,6.029,-0.022,0.035,-0.012,101.0,102.0,102.0,13.4,1505.2,351.7,-0.8,1.8,2471.428,13.29,0.041,327.8
2023-07-17T04:22:03,42.805,6.029,-0.052,0.024,-0.062,103.0,102.0,102.0,13.3,1505.2,322.3,-0.8,1.8,2471.428,13.29,0.057,294.8
2023-07-17T04:25:03,42.805,6.029,0.003,0.019,-0.007,102.0,103.0,101.0,13.3,1505.2,343.6,-0.8,1.8,2471.412,13.29,0.019,9.0
2023-07-17T04:28:03,42.805,6.029,-0.004,0.03,-0.022,104.0,103.0,101.0,13.4,1505.2,326.3,-0.7,1.8,2471.438,13.29,0.03,352.4
2023-07-17T04:31:03,42.805,6.029,-0.042,0.027,-0.016,103.0,101.0,102.0,13.4,1505.2,336.0,-0.8,1.8,2471.406,13.29,0.049,302.7
2023-07-17T04:34:03,42.805,6.029,-0.036,0.025,-0.008,102.0,101.0,102.0,13.4,1505.2,326.9,-0.7,1.8,2471.423,13.29,0.043,304.8
2023-07-17T04:37:03,42.805,6.029,-0.022,0.021,-0.025,102.0,102.0,101.0,13.4,1505.2,336.1,-0.8,1.8,2471.424,13.29,0.03,313.7
2023-07-17T04:40:03,42.805,6.029,-0.011,0.042,-0.024,102.0,102.0,101.0,13.4,1505.2,352.1,-0.8,1.8,2471.415,13.29,0.043,345.3
2023-07-17T04:43:03,42.805,6.029,-0.015,0.015,-0.036,102.0,102.0,101.0,13.4,1505.2,346.2,-0.8,1.8,2471.39,13.29,0.021,315.0
2023-07-17T04:46:03,42.805,6.029,-0.023,0.032,0.001,103.0,102.0,101.0,13.4,1505.2,332.1,-0.8,1.8,2471.411,13.29,0.039,324.3
2023-07-17T04:49:03,42.805,6.029,-0.021,0.006,-0.046,100.0,103.0,101.0,13.4,1505.2,331.0,-0.8,1.8,2471.448,13.29,0.021,285.9
2023-07-17T04:52:03,42.805,6.029,-0.037,0.037,0.003,101.0,102.0,101.0,13.3,1505.2,328.0,-0.8,1.8,2471.395,13.29,0.052,315.0
2023-07-17T04:55:03,42.805,6.029,0.0,0.053,0.01,102.0,101.0,101.0,13.4,1505.2,344.9,-0.8,1.8,2471.424,13.29,0.053,0.0
2023-07-17T04:58:03,42.805,6.029,-0.029,0.039,-0.028,101.0,102.0,101.0,13.4,1505.2,341.9,-0.8,1.8,2471.449,13.29,0.048,323.4
2023-07-17T05:04:03,42.805,6.029,-0.026,0.01,-0.021,103.0,102.0,101.0,13.4,1505.2,349.9,-0.8,1.9,2471.471,13.29,0.027,291.0
2023-07-17T05:07:03,42.805,6.029,-0.015,0.015,-0.039,102.0,102.0,101.0,13.4,1505.2,332.5,-0.8,1.8,2471.485,13.29,0.021,315.0
2023-07-17T05:10:03,42.805,6.029,-0.02,0.026,-0.036,102.0,102.0,102.0,13.3,1505.2,342.6,-0.8,1.8,2471.452,13.29,0.032,322.4
2023-07-17T05:13:03,42.805,6.029,-0.048,0.049,-0.027,103.0,102.0,101.0,13.4,1505.2,332.5,-0.8,1.8,2471.431,13.29,0.068,315.6
2023-07-17T05:16:03,42.805,6.029,-0.007,0.028,-0.001,102.0,102.0,101.0,13.4,1505.2,343.0,-0.7,1.8,2471.435,13.29,0.028,346.0
2023-07-17T05:19:03,42.805,6.029,-0.009,0.031,-0.006,102.0,101.0,101.0,13.4,1505.2,343.5,-0.8,1.8,2471.393,13.29,0.032,343.8
2023-07-17T05:22:03,42.805,6.029,-0.012,0.039,-0.01,100.0,103.0,101.0,13.4,1505.2,331.6,-0.8,1.8,2471.425,13.29,0.04,342.9
2023-07-17T05:25:03,42.805,6.029,-0.011,0.022,-0.028,102.0,100.0,101.0,13.4,1505.2,340.7,-0.8,1.8,2471.421,13.29,0.024,333.4
2023-07-17T05:28:03,42.805,6.029,-0.01,0.029,-0.039,101.0,103.0,100.0,13.3,1505.2,350.5,-0.8,1.8,2471.431,13.29,0.03,341.0
2023-07-17T05:31:03,42.805,6.029,0.002,0.002,0.0,101.0,103.0,101.0,13.4,1505.2,322.2,-0.8,1.8,2471.417,13.29,0.002,45.0
2023-07-17T05:34:03,42.805,6.029,-0.018,0.019,0.008,103.0,103.0,101.0,13.4,1505.2,340.2,-0.8,1.8,2471.441,13.29,0.026,316.5
2023-07-17T05:37:03,42.805,6.029,-0.016,0.024,-0.008,102.0,103.0,101.0,13.4,1505.2,329.3,-0.8,1.8,2471.458,13.29,0.028,326.3
2023-07-17T05:40:03,42.805,6.029,-0.017,0.04,-0.027,103.0,101.0,101.0,13.4,1505.2,346.7,-0.8,1.8,2471.42,13.29,0.043,337.0
2023-07-17T05:43:03,42.805,6.029,-0.019,0.037,-0.041,101.0,102.0,101.0,13.4,1505.2,350.1,-0.8,1.8,2471.466,13.29,0.041,332.8
2023-07-17T05:46:03,42.805,6.029,-0.051,0.051,-0.048,102.0,101.0,101.0,13.3,1505.2,344.2,-0.8,1.8,2471.426,13.29,0.072,315.0
2023-07-17T05:49:03,42.805,6.029,-0.029,0.029,-0.042,102.0,102.0,101.0,13.4,1505.2,322.9,-0.7,1.8,2471.461,13.29,0.041,315.0
2023-07-17T05:52:03,42.805,6.029,-0.021,0.038,-0.013,102.0,102.0,100.0,13.4,1505.2,338.2,-0.8,1.8,2471.452,13.29,0.043,331.1
2023-07-17T05:55:03,42.805,6.029,-0.006,0.017,-0.029,101.0,103.0,101.0,13.4,1505.2,353.1,-0.8,1.8,2471.472,13.29,0.018,340.6
2023-07-17T05:58:03,42.805,6.029,-0.001,0.023,-0.013,103.0,101.0,100.0,13.4,1505.2,329.6,-0.8,1.8,2471.462,13.29,0.023,357.5
2023-07-17T06:04:03,42.805,6.029,-0.017,0.017,-0.046,104.0,101.0,101.0,13.4,1505.2,345.9,-0.8,1.8,2471.496,13.29,0.024,315.0
2023-07-17T06:07:03,42.805,6.029,-0.012,0.04,-0.02,102.0,102.0,101.0,13.4,1505.2,348.4,-0.7,1.8,2471.475,13.29,0.041,343.3
2023-07-17T06:10:03,42.805,6.029,-0.017,0.023,-0.045,102.0,102.0,101.0,13.4,1505.2,331.9,-0.8,1.8,2471.513,13.29,0.028,323.5
2023-07-17T06:13:03,42.805,6.029,0.0,0.022,-0.015,104.0,102.0,101.0,13.3,1505.2,343.3,-0.7,1.8,2471.484,13.29,0.022,0.0
2023-07-17T06:16:03,42.805,6.029,-0.017,0.037,-0.012,103.0,102.0,101.0,13.4,1505.2,331.8,-0.8,1.8,2471.472,13.29,0.04,335.3
2023-07-17T06:19:03,42.805,6.029,-0.03,0.063,0.0,102.0,102.0,101.0,13.3,1505.2,349.9,-0.7,1.8,2471.452,13.29,0.069,334.5
2023-07-17T06:22:03,42.805,6.029,-0.009,0.013,-0.034,103.0,102.0,101.0,13.4,1505.2,336.1,-0.8,1.8,2471.489,13.29,0.015,325.3
2023-07-17T06:25:03,42.805,6.029,-0.037,0.029,-0.016,104.0,103.0,100.0,13.3,1505.2,321.3,-0.7,1.8,2471.467,13.29,0.047,308.1
2023-07-17T06:28:03,42.805,6.029,-0.017,0.022,-0.011,102.0,102.0,102.0,13.3,1505.2,342.8,-0.8,1.8,2471.444,13.29,0.027,322.3
2023-07-17T06:31:03,42.805,6.029,-0.01,0.022,-0.035,102.0,103.0,101.0,13.4,1505.2,342.8,-0.8,1.8,2471.474,13.29,0.024,335.6
2023-07-17T06:34:03,42.805,6.029,-0.004,0.016,-0.031,103.0,102.0,101.0,13.3,1505.2,348.9,-0.8,1.8,2471.457,13.29,0.016,346.0
2023-07-17T06:37:03,42.805,6.029,-0.02,0.004,-0.02,102.0,102.0,101.0,13.4,1505.2,324.9,-0.8,1.8,2471.474,13.29,0.02,281.3
2023-07-17T06:40:03,42.805,6.029,0.021,0.037,0.009,102.0,102.0,100.0,13.4,1505.2,351.5,-0.7,1.8,2471.468,13.29,0.042,29.6
2023-07-17T06:43:03,42.805,6.029,-0.037,0.02,-0.036,103.0,102.0,101.0,13.4,1505.2,324.1,-0.8,1.8,2471.467,13.29,0.042,298.4
2023-07-17T06:46:03,42.805,6.029,-0.018,0.005,-0.038,103.0,102.0,99.0,13.4,1505.2,333.4,-0.8,1.8,2471.428,13.29,0.018,285.5
2023-07-17T06:49:03,42.805,6.029,-0.023,0.015,-0.026,103.0,101.0,100.0,13.4,1505.2,326.0,-0.7,1.8,2471.431,13.29,0.027,303.1
2023-07-17T06:52:03,42.805,6.029,0.013,0.008,-0.039,103.0,101.0,100.0,13.4,1505.2,347.3,-0.7,1.9,2471.478,13.29,0.015,58.4
2023-07-17T06:55:03,42.805,6.029,-0.037,0.03,-0.029,102.0,101.0,101.0,13.3,1505.2,339.5,-0.7,1.8,2471.421,13.29,0.047,309.0
2023-07-17T06:58:03,42.805,6.029,-0.015,0.022,-0.011,102.0,101.0,101.0,13.4,1505.2,323.9,-0.8,1.8,2471.454,13.29,0.026,325.7
2023-07-17T07:04:03,42.805,6.029,-0.024,0.025,-0.034,101.0,101.0,101.0,13.4,1505.2,332.0,-0.7,1.8,2471.507,13.29,0.034,316.2
2023-07-17T07:07:03,42.805,6.029,-0.007,0.016,0.018,100.0,102.0,101.0,13.4,1505.2,324.7,-0.8,1.8,2471.513,13.29,0.017,336.4
2023-07-17T07:10:03,42.805,6.029,-0.001,0.023,0.005,100.0,101.0,101.0,13.4,1505.2,342.6,-0.8,1.8,2471.478,13.29,0.023,357.5
2023-07-17T07:13:03,42.805,6.029,-0.013,0.012,-0.026,101.0,102.0,101.0,13.3,1505.2,327.3,-0.8,1.8,2471.507,13.29,0.017,312.7
2023-07-17T07:16:03,42.805,6.029,0.004,0.043,0.013,101.0,102.0,100.0,13.4,1505.2,328.5,-0.7,1.8,2471.479,13.29,0.043,5.3
2023-07-17T07:19:03,42.805,6.029,-0.042,0.035,-0.045,102.0,102.0,100.0,13.4,1505.2,340.9,-0.7,1.8,2471.494,13.29,0.054,309.8
2023-07-17T07:22:03,42.805,6.029,-0.018,0.033,-0.019,101.0,102.0,101.0,13.4,1505.2,332.5,-0.8,1.8,2471.475,13.29,0.037,331.4
2023-07-17T07:25:03,42.805,6.029,-0.033,0.024,-0.007,102.0,101.0,100.0,13.4,1505.2,325.3,-0.7,1.8,2471.463,13.29,0.04,306.0
2023-07-17T07:28:03,42.805,6.029,-0.019,0.045,-0.011,101.0,100.0,101.0,13.4,1505.2,347.9,-0.8,1.8,2471.428,13.29,0.048,337.1
2023-07-17T07:31:03,42.805,6.029,-0.029,0.028,-0.028,104.0,102.0,100.0,13.4,1505.2,332.8,-0.8,1.8,2471.449,13.29,0.04,314.0
2023-07-17T07:34:03,42.805,6.029,0.009,0.013,-0.001,102.0,102.0,100.0,13.4,1505.2,331.0,-0.8,1.8,2471.449,13.29,0.015,34.7
2023-07-17T07:37:03,42.805,6.029,-0.021,0.04,-0.032,101.0,101.0,101.0,13.4,1505.2,341.8,-0.8,1.8,2471.459,13.29,0.045,332.3
2023-07-17T07:40:03,42.805,6.029,-0.016,0.032,-0.008,101.0,101.0,101.0,13.3,1505.2,341.9,-0.7,1.8,2471.483,13.29,0.035,333.4
2023-07-17T07:43:03,42.805,6.029,-0.021,0.027,-0.032,100.0,103.0,100.0,13.4,1505.2,332.2,-0.8,1.8,2471.471,13.29,0.034,322.1
2023-07-17T07:46:03,42.805,6.029,0.001,0.018,0.004,102.0,102.0,100.0,13.4,1505.2,325.7,-0.7,1.8,2471.428,13.29,0.018,3.2
2023-07-17T07:49:03,42.805,6.029,-0.013,0.034,-0.049,102.0,103.0,101.0,13.4,1505.2,351.7,-0.8,1.8,2471.471,13.29,0.036,339.1
2023-07-17T07:52:03,42.805,6.029,-0.029,0.01,-0.02,101.0,102.0,101.0,13.3,1505.2,333.4,-0.8,1.8,2471.421,13.29,0.03,289.0
2023-07-17T07:55:03,42.805,6.029,-0.003,0.023,-0.022,101.0,101.0,100.0,13.4,1505.2,342.2,-0.8,1.8,2471.432,13.29,0.023,352.6
2023-07-17T07:58:03,42.805,6.029,-0.032,0.011,-0.052,101.0,103.0,101.0,13.4,1505.2,324.2,-0.8,1.8,2471.431,13.29,0.033,289.0
2023-07-17T08:04:03,42.805,6.029,-0.011,0.023,-0.001,102.0,101.0,101.0,13.4,1505.2,335.5,-0.8,1.8,2471.494,13.29,0.025,334.4
2023-07-17T08:07:03,42.805,6.029,-0.013,0.032,-0.025,101.0,102.0,101.0,13.4,1505.2,330.2,-0.7,1.8,2471.511,13.29,0.034,337.9
2023-07-17T08:10:03,42.805,6.029,-0.039,0.029,-0.034,103.0,102.0,101.0,13.4,1505.2,337.7,-0.8,1.8,2471.459,13.29,0.048,306.6
2023-07-17T08:13:03,42.805,6.029,-0.024,0.035,-0.023,104.0,100.0,101.0,13.3,1505.2,330.3,-0.8,1.8,2471.456,13.29,0.042,325.6
2023-07-17T08:16:03,42.805,6.029,-0.005,0.031,-0.025,102.0,102.0,101.0,13.3,1505.2,349.5,-0.8,1.8,2471.441,13.29,0.031,350.8
2023-07-17T08:19:03,42.805,6.029,-0.056,0.069,0.012,102.0,101.0,101.0,13.3,1505.2,337.2,-0.8,1.8,2471.459,13.29,0.088,320.9
2023-07-17T08:22:03,42.805,6.029,-0.019,0.031,-0.005,100.0,102.0,102.0,13.4,1505.2,341.1,-0.8,1.8,2471.435,13.29,0.036,328.5
2023-07-17T08:25:03,42.805,6.029,-0.019,0.026,-0.025,102.0,102.0,101.0,13.4,1505.2,347.5,-0.8,1.8,2471.445,13.29,0.032,323.8
2023-07-17T08:28:03,42.805,6.029,-0.007,0.025,-0.037,101.0,102.0,100.0,13.4,1505.2,339.3,-0.7,1.8,2471.451,13.29,0.025,344.4
2023-07-17T08:31:03,42.805,6.029,-0.008,0.01,-0.022,102.0,101.0,102.0,13.3,1505.2,351.8,-0.7,1.8,2471.405,13.29,0.012,321.3
2023-07-17T08:34:03,42.805,6.029,-0.033,0.018,-0.026,102.0,100.0,102.0,13.4,1505.2,321.4,-0.8,1.8,2471.419,13.29,0.037,298.6
2023-07-17T08:37:03,42.805,6.029,0.007,-0.003,-0.027,101.0,101.0,101.0,13.4,1505.2,354.4,-0.8,1.8,2471.415,13.29,0.007,113.2
2023-07-17T08:40:03,42.805,6.029,-0.006,0.017,-0.019,102.0,101.0,101.0,13.4,1505.2,333.4,-0.7,1.8,2471.422,13.29,0.018,340.6
2023-07-17T08:43:03,42.805,6.029,-0.022,0.021,-0.015,102.0,102.0,101.0,13.4,1505.2,350.1,-0.8,1.8,2471.427,13.29,0.03,313.7
2023-07-17T08:46:03,42.805,6.029,-0.002,0.004,-0.054,103.0,103.0,100.0,13.4,1505.2,325.0,-0.8,1.8,2471.402,13.29,0.004,333.4
2023-07-17T08:49:03,42.805,6.029,-0.013,0.004,-0.025,104.0,103.0,101.0,13.3,1505.2,336.3,-0.8,1.8,2471.443,13.29,0.013,287.1
2023-07-17T08:52:03,42.805,6.029,-0.036,0.046,-0.029,102.0,103.0,100.0,13.3,1505.2,339.5,-0.7,1.8,2471.41,13.29,0.058,322.0
2023-07-17T08:55:03,42.805,6.029,-0.013,0.015,-0.033,104.0,102.0,100.0,13.3,1505.2,335.4,-0.8,1.8,2471.369,13.29,0.019,319.1
2023-07-17T08:58:03,42.805,6.029,-0.012,0.033,-0.016,102.0,102.0,101.0,13.3,1505.2,342.7,-0.8,1.8,2471.425,13.29,0.035,340.0
2023-07-17T09:04:03,42.805,6.029,-0.012,0.027,0.008,102.0,102.0,101.0,13.4,1505.2,340.9,-0.8,1.8,2471.466,13.29,0.029,336.0
2023-07-17T09:07:03,42.805,6.029,-0.02,0.027,-0.014,102.0,102.0,101.0,13.4,1505.2,343.8,-0.8,1.8,2471.448,13.29,0.033,323.5
2023-07-17T09:10:03,42.805,6.029,-0.018,0.011,-0.04,102.0,102.0,101.0,13.3,1505.2,352.7,-0.8,1.8,2471.453,13.29,0.021,301.4
2023-07-17T09:13:03,42.805,6.029,-0.026,0.029,-0.025,101.0,103.0,101.0,13.4,1505.2,339.1,-0.8,1.8,2471.432,13.29,0.038,318.1
2023-07-17T09:16:03,42.805,6.029,-0.01,0.01,-0.019,102.0,102.0,100.0,13.3,1505.2,329.5,-0.7,1.8,2471.429,13.29,0.014,315.0
2023-07-17T09:19:03,42.805,6.029,-0.035,0.023,-0.061,102.0,103.0,100.0,13.4,1505.2,344.2,-0.7,1.8,2471.43,13.29,0.041,303.3
2023-07-17T09:22:03,42.805,6.029,-0.031,-0.004,-0.057,103.0,101.0,102.0,13.4,1505.2,340.8,-0.8,1.8,2471.382,13.29,0.031,262.7
2023-07-17T09:25:03,42.805,6.029,0.02,0.015,0.001,103.0,102.0,101.0,13.4,1505.2,341.5,-0.8,1.8,2471.381,13.29,0.025,53.1
2023-07-17T09:28:03,42.805,6.029,-0.005,0.023,-0.011,102.0,102.0,101.0,13.3,1505.2,339.5,-0.7,1.8,2471.385,13.29,0.023,347.7
2023-07-17T09:31:03,42.805,6.029,-0.031,0.02,-0.041,101.0,102.0,101.0,13.4,1505.2,344.2,-0.8,1.8,2471.432,13.29,0.036,302.8
2023-07-17T09:34:03,42.805,6.029,-0.004,0.013,0.0,100.0,104.0,101.0,13.3,1505.2,336.2,-0.8,1.8,2471.372,13.29,0.013,342.9
2023-07-17T09:37:03,42.805,6.029,-0.024,0.019,-0.046,102.0,102.0,102.0,13.3,1505.2,337.2,-0.8,1.8,2471.413,13.29,0.03,308.4
2023-07-17T09:40:03,42.805,6.029,-0.037,0.034,-0.026,103.0,102.0,101.0,13.4,1505.2,326.3,-0.8,1.8,2471.378,13.29,0.05,312.6
2023-07-17T09:43:03,42.805,6.029,-0.004,-0.014,-0.056,102.0,103.0,101.0,13.4,1505.2,343.8,-0.8,1.8,2471.423,13.29,0.014,195.9
2023-07-17T09:46:03,42.805,6.029,-0.002,0.045,-0.025,102.0,101.0,101.0,13.3,1505.2,340.4,-0.8,1.8,2471.373,13.29,0.045,357.5
2023-07-17T09:49:03,42.805,6.029,-0.009,0.019,-0.026,101.0,103.0,101.0,13.3,1505.2,334.2,-0.7,1.8,2471.363,13.29,0.021,334.7
2023-07-17T09:52:03,42.805,6.029,-0.012,0.019,-0.022,102.0,104.0,101.0,13.4,1505.2,338.9,-0.7,1.8,2471.418,13.29,0.022,327.7
2023-07-17T09:55:03,42.805,6.029,0.007,0.018,-0.02,101.0,104.0,102.0,13.4,1505.2,344.4,-0.8,1.8,2471.357,13.29,0.019,21.2